Powrót do katalogu

THORAD DELTA 1 DEB

AktywnySSO
NORAD 17023·DEBRIS·🇺🇸 United States

Wystrzelony Nov 15, 1974 z Vandenberg Space Force Base

Loading…

Następne Przeloty (najbliższe 24 godziny)

TLE

ŚwieżeSource: Space-Track

Epoka: Sep 13, 2026, 11:12 UTC

1 17023U 74089EW  26256.46690255  .00000149  00000-0  10438-2 0  9991
2 17023 101.5174 222.2519 0053201 100.5847  24.2108 12.64728074919864

Śledź THORAD DELTA 1 DEB w czasie rzeczywistym z AllMySat

Download on the App Store